Hyannis, MA

8:08 PM EDT on August 26, 2016 (GMT -0400)
Barnstable Municipal-Boardman-Polando Field

Weather History for KHYA - September, 2013

Change the Weather History Date:

Tuesday, September 3, 2013

  Actual Average Record
Temperature  
Mean Temperature 72 °F -  
Max Temperature 78 °F 75 °F 86 °F (1930)
Min Temperature 66 °F 61 °F 44 °F (1958)
Cooling Degree Days 7    
Growing Degree Days 22 (Base 50)    
Moisture  
Dew Point 69 °F    
Average Humidity 92    
Maximum Humidity 100    
Minimum Humidity 81    
Precipitation  
Precipitation 1.78 in - - ()
Sea Level Pressure  
Sea Level Pressure 29.76 in    
Wind  
Wind Speed 6 mph (SW)    
Max Wind Speed 14 mph    
Max Gust Speed 28 mph    
Visibility 5 miles    
Events Fog , Rain , Thunderstorm    
Averages and records for this station are not official NWS values.
T = Trace of Precipitation, MM = Missing Value Source: NWS Daily Summary

Daily Weather History Graph

Daily Weather History Graph

Search for Another Location

Airport or City:

Trip Planner

Search our weather history database for the weather conditions in past years. The results will help you decide how hot, cold, wet, or windy it might be!

Date:

Astronomy

Sep. 03, 2013 Rise Set
Actual Time 6:09 AM EDT 7:10 PM EDT
Civil Twilight 5:40 AM EDT 7:39 PM EDT
Nautical Twilight 5:06 AM EDT 8:12 PM EDT
Astronomical Twilight 4:31 AM EDT 8:48 PM EDT
Moon 4:19 AM EDT (9/3) 5:56 PM EDT (9/3)
Length of Visible Light 13h 58m
Length of Day
13h 01m
Waning Crescent, 3% of the Moon is Illuminated
Sep 3
Waning Crescent
Sep 5
New
Sep 12
First Quarter
Sep 19
Full
Sep 26
Last Quarter

Hourly Weather History & Observations

Time (EDT) Temp. Dew Point Humidity Pressure Visibility Wind Dir Wind Speed Gust Speed Precip Events Conditions
12:56 AM 72.0 °F 71.1 °F 97% 29.75 in 6.0 mi SW 5.8 mph - N/A   Overcast
1:56 AM 72.0 °F 71.1 °F 97% 29.74 in 6.0 mi SSW 4.6 mph - N/A   Overcast
2:05 AM 73.4 °F 71.6 °F 94% 29.73 in 7.0 mi SSW 6.9 mph - N/A   Overcast
2:56 AM 73.0 °F 71.1 °F 93% 29.72 in 7.0 mi SW 8.1 mph - N/A   Overcast
3:51 AM 71.6 °F 69.8 °F 94% 29.70 in 6.0 mi SW 9.2 mph - N/A   Overcast
3:56 AM 72.0 °F 70.0 °F 93% 29.70 in 6.0 mi SW 6.9 mph - N/A   Overcast
4:44 AM 71.6 °F 69.8 °F 94% 29.70 in 1.8 mi SW 10.4 mph - N/A   Overcast
4:56 AM 71.1 °F 70.0 °F 96% 29.72 in 0.8 mi WSW 11.5 mph - N/A   Mist
5:10 AM 71.6 °F 69.8 °F 94% 29.71 in 1.2 mi SW 10.4 mph - N/A   Overcast
5:35 AM 71.6 °F 69.8 °F 94% 29.72 in 0.5 mi WSW 6.9 mph - N/A Fog Fog
5:56 AM 71.1 °F 70.0 °F 96% 29.73 in 0.8 mi SW 9.2 mph - N/A   Mist
6:56 AM 71.1 °F 70.0 °F 96% 29.75 in 1.2 mi West 4.6 mph - N/A   Overcast
7:52 AM 71.6 °F 71.6 °F 100% 29.77 in 3.0 mi WSW 4.6 mph - N/A   Overcast
7:56 AM 71.1 °F 70.0 °F 96% 29.78 in 3.0 mi WSW 6.9 mph - N/A   Overcast
8:37 AM 73.4 °F 71.6 °F 94% 29.78 in 5.0 mi WSW 5.8 mph - N/A   Overcast
8:56 AM 73.9 °F 71.1 °F 91% 29.79 in 5.0 mi SW 6.9 mph - N/A   Overcast
9:56 AM 75.9 °F 71.1 °F 85% 29.79 in 7.0 mi SSW 3.5 mph - N/A   Mostly Cloudy
10:54 AM 77.0 °F 71.6 °F 83% 29.78 in 8.0 mi South 5.8 mph - N/A   Partly Cloudy
10:56 AM 78.1 °F 72.0 °F 81% 29.79 in 7.0 mi SSW 5.8 mph - N/A   Scattered Clouds
11:56 AM 75.0 °F 70.0 °F 84% 29.77 in 9.0 mi SSW 10.4 mph - N/A   Scattered Clouds
12:03 PM 75.2 °F 71.6 °F 89% 29.77 in 9.0 mi SSW 10.4 mph - N/A   Mostly Cloudy
12:56 PM 75.9 °F 71.1 °F 85% 29.77 in 10.0 mi South 9.2 mph - N/A   Scattered Clouds
1:24 PM 75.2 °F 71.6 °F 89% 29.77 in 10.0 mi SSW 9.2 mph - N/A   Mostly Cloudy
1:56 PM 75.9 °F 71.1 °F 85% 29.76 in 10.0 mi South 11.5 mph - N/A   Overcast
2:18 PM 77.0 °F 71.6 °F 83% 29.74 in 10.0 mi South 10.4 mph 18.4 mph N/A   Partly Cloudy
2:25 PM 75.2 °F 71.6 °F 89% 29.74 in 8.0 mi South 13.8 mph - N/A   Partly Cloudy
2:47 PM 73.4 °F 71.6 °F 94% 29.73 in 5.0 mi SSW 11.5 mph - N/A   Mostly Cloudy
2:56 PM 73.0 °F 71.1 °F 93% 29.73 in 2.0 mi South 9.2 mph 18.4 mph N/A   Overcast
3:27 PM 73.4 °F 71.6 °F 94% 29.74 in 1.0 mi SSW 10.4 mph - N/A   Overcast
3:56 PM 73.0 °F 72.0 °F 96% 29.75 in 1.0 mi SSW 6.9 mph 17.3 mph N/A   Overcast
4:56 PM 69.1 °F 66.0 °F 90% 29.78 in 1.0 mi North 9.2 mph 27.6 mph 0.28 in Rain , Thunderstorm Heavy Thunderstorms and Rain
4:58 PM 69.8 °F 66.2 °F 88% 29.78 in 0.5 mi NW 11.5 mph 17.3 mph 0.05 in Fog , Rain , Thunderstorm Heavy Thunderstorms and Rain
5:09 PM 68.0 °F 64.4 °F 88% 29.75 in 3.0 mi North 5.8 mph - 0.22 in Rain , Thunderstorm Heavy Thunderstorms and Rain
5:17 PM 68.0 °F 64.4 °F 88% 29.75 in 3.0 mi Calm Calm - 0.23 in Rain , Thunderstorm Rain
5:56 PM 66.9 °F 64.9 °F 93% 29.75 in 0.2 mi NW 3.5 mph - 1.18 in Fog , Rain , Thunderstorm Heavy Thunderstorms and Rain
6:05 PM 66.2 °F 66.2 °F 100% 29.77 in 5.0 mi Calm Calm - 0.02 in Rain , Thunderstorm Light Thunderstorms and Rain
6:21 PM 66.2 °F 66.2 °F 100% 29.77 in 5.0 mi Calm Calm - 0.02 in Rain , Thunderstorm Light Rain
6:44 PM 68.0 °F 66.2 °F 94% 29.76 in 5.0 mi Variable 3.5 mph - 0.03 in Rain , Thunderstorm Light Rain
6:56 PM 68.0 °F 66.0 °F 93% 29.75 in 5.0 mi NE 4.6 mph - 0.11 in Rain , Thunderstorm Rain
6:59 PM 68.0 °F 66.2 °F 94% 29.75 in 1.8 mi NE 4.6 mph - 0.02 in Rain , Thunderstorm Heavy Rain
7:12 PM 66.2 °F 66.2 °F 100% 29.75 in 3.0 mi Calm Calm - 0.07 in Rain , Thunderstorm Light Rain
7:17 PM 68.0 °F 66.2 °F 94% 29.75 in 8.0 mi Calm Calm - 0.07 in Rain , Thunderstorm Light Rain
7:44 PM 68.0 °F 66.2 °F 94% 29.76 in 10.0 mi Calm Calm - 0.07 in Thunderstorm Overcast
7:56 PM 68.0 °F 66.9 °F 96% 29.76 in 10.0 mi SE 3.5 mph - 0.07 in Thunderstorm Overcast
8:21 PM 68.0 °F 66.2 °F 94% 29.78 in 1.8 mi Calm Calm - 0.09 in Rain , Thunderstorm Rain
8:30 PM 68.0 °F 66.2 °F 94% 29.78 in 3.0 mi Calm Calm - 0.10 in Rain , Thunderstorm Light Rain
8:51 PM 68.0 °F 66.2 °F 94% 29.79 in 4.0 mi Calm Calm - 0.14 in Rain Light Rain
8:56 PM 68.0 °F 66.9 °F 96% 29.80 in 3.0 mi Calm Calm - 0.14 in Rain Light Rain
9:13 PM 69.8 °F 66.2 °F 88% 29.80 in 10.0 mi WSW 3.5 mph - 0.00 in Rain Light Rain
9:56 PM 69.1 °F 68.0 °F 96% 29.81 in 6.0 mi South 3.5 mph - 0.00 in   Overcast
10:56 PM 70.0 °F 68.0 °F 93% 29.81 in 10.0 mi SW 3.5 mph - N/A   Overcast
11:44 PM 69.8 °F 66.2 °F 88% 29.80 in 8.0 mi West 4.6 mph - N/A   Scattered Clouds
11:56 PM 68.0 °F 66.9 °F 96% 29.80 in 8.0 mi WSW 4.6 mph - N/A   Scattered Clouds